Toledo, OH

6:04 AM EDT on October 17, 2017 (GMT -0400)
Toledo Express

Weather History for KTOL - August, 2014

Change the Weather History Date:

Friday, August 8, 2014

  Actual Average Record
Temperature  
Mean Temperature 69 °F 72 °F  
Max Temperature 82 °F 83 °F 97 °F (2001)
Min Temperature 55 °F 62 °F 44 °F (1989)
Degree Days  
Heating Degree Days 0 0  
Month to date heating degree days 0 0  
Since 1 June heating degree days 25 38  
Since 1 July heating degree days 9 3  
Cooling Degree Days 4 8  
Month to date cooling degree days 41 64  
Year to date cooling degree days 431 552  
Since 1 June cooling degree days 369 499  
Growing Degree Days 18 (Base 50)    
Moisture  
Dew Point 55 °F    
Average Humidity 67    
Maximum Humidity 100    
Minimum Humidity 33    
Precipitation  
Precipitation 0.00 in 0.10 in 0.79 in (1965)
Month to date precipitation 0.09 0.87  
Year to date precipitation 18.75 21.04  
Snow  
Snow 0.00 in 0.00 in - ()
Month to date snowfall 0.0 0.0  
Since 1 June snowfall 0.0 0.0  
Since 1 July snowfall 0.0 0.0  
Snow Depth 0.00 in    
Sea Level Pressure  
Sea Level Pressure 30.10 in    
Wind  
Wind Speed 4 mph (East)    
Max Wind Speed 15 mph    
Max Gust Speed 21 mph    
Visibility 10 miles    
Events      
T = Trace of Precipitation, MM = Missing Value Source: NWS Daily Summary

Daily Weather History Graph

Daily Weather History Graph

Search for Another Location

Airport or City:

Trip Planner

Search our weather history database for the weather conditions in past years. The results will help you decide how hot, cold, wet, or windy it might be!

Date:

Astronomy

Aug. 08, 2014 Rise Set
Actual Time 6:36 AM EDT 8:44 PM EDT
Civil Twilight 6:06 AM EDT 9:14 PM EDT
Nautical Twilight 5:28 AM EDT 9:52 PM EDT
Astronomical Twilight 4:47 AM EDT 10:32 PM EDT
Moon 6:55 PM EDT (8/8) 4:07 AM EDT (8/8)
Length of Visible Light 15h 08m
Length of Day
14h 07m
Waxing Gibbous, 93% of the Moon is Illuminated
Aug 8
Waxing Gibbous
Aug 10
Full
Aug 17
Last Quarter
Aug 25
New
Sep 2
First Quarter

Hourly Weather History & Observations

Time (EDT) Temp. Heat Index Dew Point Humidity Pressure Visibility Wind Dir Wind Speed Gust Speed Precip Events Conditions
12:52 AM 60.1 °F - 54.0 °F 80% 30.09 in 10.0 mi NE 3.5 mph - N/A   Clear
1:52 AM 60.1 °F - 54.0 °F 80% 30.10 in 10.0 mi Calm Calm - N/A   Clear
2:52 AM 57.0 °F - 54.0 °F 89% 30.10 in 10.0 mi Calm Calm - N/A   Clear
3:52 AM 55.9 °F - 54.0 °F 93% 30.10 in 10.0 mi Calm Calm - N/A   Clear
4:52 AM 55.0 °F - 53.1 °F 93% 30.11 in 10.0 mi Calm Calm - N/A   Partly Cloudy
5:52 AM 55.9 °F - 54.0 °F 93% 30.11 in 9.0 mi Calm Calm - N/A   Clear
6:52 AM 55.0 °F - 54.0 °F 96% 30.12 in 7.0 mi Calm Calm - N/A   Clear
7:52 AM 57.9 °F - 57.0 °F 97% 30.12 in 7.0 mi Calm Calm - N/A   Clear
8:52 AM 64.9 °F - 57.0 °F 75% 30.14 in 9.0 mi Calm Calm - N/A   Clear
9:52 AM 71.1 °F - 55.9 °F 59% 30.14 in 10.0 mi ESE 3.5 mph - N/A   Clear
10:52 AM 75.9 °F - 55.0 °F 48% 30.13 in 10.0 mi East 8.1 mph - N/A   Clear
11:52 AM 78.1 °F - 54.0 °F 43% 30.12 in 10.0 mi East 6.9 mph - N/A   Clear
12:52 PM 79.0 °F - 54.0 °F 42% 30.12 in 10.0 mi Variable 4.6 mph - N/A   Partly Cloudy
1:52 PM 80.1 °F 80.1 °F 55.0 °F 42% 30.10 in 10.0 mi East 9.2 mph - N/A   Mostly Cloudy
2:52 PM 81.0 °F 80.4 °F 53.1 °F 38% 30.10 in 10.0 mi ENE 8.1 mph - N/A   Clear
3:52 PM 81.0 °F - 51.1 °F 35% 30.09 in 10.0 mi ESE 9.2 mph - N/A   Clear
4:52 PM 81.0 °F - 48.9 °F 33% 30.07 in 10.0 mi East 10.4 mph - N/A   Clear
5:52 PM 79.0 °F - 52.0 °F 39% 30.08 in 10.0 mi ENE 9.2 mph - N/A   Clear
6:52 PM 77.0 °F - 52.0 °F 42% 30.08 in 10.0 mi East 9.2 mph - N/A   Clear
7:52 PM 73.9 °F - 55.9 °F 53% 30.09 in 10.0 mi East 11.5 mph - N/A   Clear
8:52 PM 69.1 °F - 57.0 °F 65% 30.09 in 10.0 mi East 5.8 mph - N/A   Clear
9:52 PM 66.0 °F - 57.0 °F 73% 30.09 in 10.0 mi East 3.5 mph - N/A   Clear
10:52 PM 62.1 °F - 57.9 °F 86% 30.10 in 10.0 mi Calm Calm - N/A   Clear
11:52 PM 62.1 °F - 57.9 °F 86% 30.10 in 10.0 mi Calm Calm - N/A   Clear